[[{"header":{"parameterUnit":"m.s-1","parameterCategory":1,"la1":30.2991,"la2":30.254,"lo1":-89.0895,"lo2":-89.0444,"dy":0.0017,"dx":0.0017,"nx":28,"ny":28,"refTime":"2026-01-11T03:00:00:Z","depth":0,"parameterNumber":2,"parameterNumberName":"U-component_of_WINDS"},"data":[0,0,0,0,0,0,0,0,0,0,0,0,0,0,0,0,0,0,0,0,0,0,0,0,0,0,0,0,0,0,0,0,0,0,0,0,0,0,0,0,0,0,0,0,0,0,0,0,0,0,0,0,0,0,0,0,0,0,0.986,0.986,0,0.9855,0.9855,0.9855,0.9856,0.9856,0.9856,0.9856,0.9849,0.9849,0.9849,0,0,0,0,0,0,0,0,0,0,0,0,0,0.987,0.9869,0.986,0.986,0.986,0.9855,0.9855,0.9855,0.9856,0.9856,0.9856,0.9856,0.9849,0.9849,0.9849,0,0,0,0,0,0,0,0,0,0,0,0,0,0.9865,0.9869,0.986,0.986,0.986,0.9855,0.9855,0.9855,0.9856,0.9856,0.9856,0.9856,0.9849,0.9849,0.9849,0.9844,0,0,0.9848,0.9847,0,0,0,0,0,0,0,0,0.9865,0.9865,0.986,0.986,0.986,0.9856,0.9856,0.9851,0.9856,0.9857,0.9856,0.9856,0.9851,0.9851,0.985,0.9844,0.9843,0.9848,0.9847,0.9847,0.9847,0,0,0,0,0,0,0,0.9866,0.9865,0.9858,0.986,0.986,0.986,0.9859,0.9855,0.9853,0.9857,0.9857,0.9856,0.9851,0.985,0.9849,0.9843,0.9848,0.9847,0.9847,0.9847,0.9835,0.9835,0,0,0,0,0,0,0.9866,0.9865,0.9858,0.9858,0.9863,0.9859,0.9859,0.9857,0.9854,0.9853,0.9856,0.9856,0.9851,0.985,0.9849,0.9844,0.9847,0.9847,0.9847,0.9835,0.9835,0.9835,0,0,0,0,0,0,0.9866,0.9866,0.9858,0.9862,0.9861,0.9859,0.9857,0.9857,0.9856,0.9853,0.9853,0.9855,0.9851,0.985,0.9846,0.9844,0.9847,0.9846,0.9835,0.9835,0.9835,0.9833,0,0,0,0,0,0,0.9867,0.9866,0.9864,0.9862,0.9861,0.9855,0.9857,0.9857,0.9855,0.9855,0.9852,0.9852,0.9851,0.9846,0.9845,0.9843,0.9846,0.9835,0.9835,0.9835,0.9834,0.9833,0.9833,0,0,0,0,0,0.9867,0.9863,0.9864,0.9863,0.9858,0.9855,0.9854,0.9854,0.9855,0.9853,0.9852,0.9852,0.9845,0.9846,0.9845,0.9843,0.9835,0.9835,0.9835,0.9834,0.9833,0.9833,0,0,0,0,0,0,0.9864,0.9863,0.9863,0.9858,0.9857,0.9855,0.9852,0.9853,0.9851,0.9851,0.985,0.9849,0.9845,0.9844,0.9845,0.9839,0.984,0.984,0.984,0.9839,0.9839,0.9839,0.9846,0,0,0,0,0,0.9863,0.986,0.9859,0.9855,0.9855,0.9854,0.9852,0.9852,0.985,0.9849,0.9848,0.9846,0.9843,0.9841,0.9838,0.9834,0.9833,0.9832,0.9832,0.9832,0.9831,0.9829,0.9829,0.9834,0.9834,0.9834,0,0,0.986,0.9859,0.9857,0.9855,0.9853,0.9851,0.9853,0.985,0.9848,0.9849,0.9845,0.9844,0.9842,0.9838,0.9836,0.9836,0.983,0.9831,0.9831,0.983,0.9829,0.9829,0.9828,0.9834,0.9834,0.9834,0,0,0.9854,0.9853,0.985,0.9849,0.9848,0.9847,0.9847,0.9845,0.9845,0.9841,0.9842,0.984,0.9835,0.9834,0.9833,0.9829,0.9828,0.9828,0.9826,0.9824,0.9824,0.9823,0.9822,0.9822,0.9827,0.9827,0.9827,0,0.985,0.9847,0.9848,0.9845,0.9844,0.9846,0.9843,0.9842,0.984,0.9839,0.984,0.9835,0.9834,0.983,0.9829,0.9828,0.9827,0.9827,0.9824,0.9823,0.9823,0.9822,0.9821,0.9827,0.9827,0.9827,0.9827,0,0.9843,0.9841,0.9839,0.9837,0.9836,0.9833,0.9834,0.9833,0.9834,0.9833,0.9831,0.9829,0.9827,0.9826,0.9826,0.9823,0.9823,0.9824,0.9825,0.9823,0.9821,0.9821,0.9827,0.9827,0.9827,0.9827,0,0,0.9833,0.9834,0.9833,0.9833,0.9832,0.9831,0.9829,0.9827,0.9826,0.9825,0.9823,0.9821,0.9822,0.9821,0.9821,0.982,0.9817,0.9821,0.9821,0.982,0.9814,0.9813,0.9812,0.9818,0.9818,0.9818,0.9814,0,0.9827,0.9823,0.9825,0.9821,0.9819,0.9822,0.982,0.982,0.982,0.9819,0.9819,0.9818,0.9819,0.9819,0.9818,0.9818,0.9816,0.9818,0.9816,0.9816,0.9816,0.9812,0.981,0.9807,0.9814,0.9814,0.9814,0,0.9818,0.9818,0.9814,0.9816,0.9815,0.9813,0.9813,0.9812,0.9812,0.9812,0.9812,0.9813,0.9812,0.9814,0.9812,0.9813,0.9813,0.9813,0.9813,0.9812,0.9814,0.9811,0.9806,0.9805,0.9813,0.9813,0.9813,0,0.9811,0.981,0.9808,0.9808,0.9809,0.9808,0.9809,0.9809,0.9809,0.9809,0.9808,0.9808,0.9807,0.9807,0.9808,0.981,0.9806,0.9808,0.9807,0.9807,0.9805,0.9805,0.98,0.9805,0.9805,0.9805,0.9805,0,0.9804,0.9801,0.9805,0.9804,0.9802,0.9804,0.9802,0.9803,0.9803,0.9802,0.9805,0.9804,0.9806,0.9805,0.9806,0.9805,0.9804,0.9805,0.9805,0.9804,0.9804,0.9803,0.9803,0.9805,0.9805,0.9805,0.9805,0,0.9795,0.9797,0.9795,0.9797,0.9798,0.9796,0.9798,0.9797,0.9799,0.9798,0.9798,0.98,0.9799,0.9801,0.98,0.9801,0.9799,0.98,0.9799,0.9799,0.9798,0.9798,0.9791,0.9791,0.9797,0.9797,0.9797,0,0.9789,0.9788,0.9791,0.979,0.9791,0.9791,0.9791,0.9794,0.9794,0.9795,0.9794,0.9794,0.9794,0.9794,0.9795,0.9795,0.9796,0.9794,0.9796,0.9796,0.9796,0.9796,0.9796,0.9793,0.9793,0.9793,0.9793,0,0.978,0.9782,0.9782,0.9783,0.9783,0.9784,0.9785,0.9784,0.9788,0.9788,0.9788,0.9788,0.9789,0.9789,0.979,0.979,0.9792,0.9793,0.9792,0.9791,0.9791,0.9791,0.9798,0.9792,0.9792,0.9792,0.9792,0.9792,0.9772,0.9771,0.9774,0.9774,0.9776,0.9777,0.9776,0.9779,0.9779,0.978,0.9782,0.9782,0.9784,0.9785,0.9786,0.9786,0.9787,0.9787,0.9786,0.9786,0.9786,0.9791,0.9787,0.9787,0.9787,0.9787,0.9787,0,0.9763,0.9765,0.9765,0.9767,0.9768,0.9771,0.9772,0.9773,0.9773,0.9775,0.9775,0.9776,0.9777,0.9779,0.9781,0.978,0.9781,0.9781,0.978,0.9781,0.9785,0.9785,0.978,0.978,0.978,0.978,0.978,0.978,0.9758,0.9757,0.9759,0.9759,0.9761,0.9762,0.9763,0.9764,0.9766,0.9767,0.9768,0.977,0.9772,0.9774,0.9775,0.9776,0.9776,0.9775,0.9776,0.978,0.978,0.9781,0.9781,0.9775,0.9775,0.9772,0.9772,0.9772]},{"header":{"parameterUnit":"m.s-1","parameterCategory":1,"la1":30.2991,"la2":30.254,"lo1":-89.0895,"lo2":-89.0444,"dy":0.0017,"dx":0.0017,"nx":28,"ny":28,"refTime":"2026-01-11T03:00:00:Z","depth":0,"parameterNumber":3,"parameterNumberName":"V-component_of_WINDS"},"data":[0,0,0,0,0,0,0,0,0,0,0,0,0,0,0,0,0,0,0,0,0,0,0,0,0,0,0,0,0,0,0,0,0,0,0,0,0,0,0,0,0,0,0,0,0,0,0,0,0,0,0,0,0,0,0,0,0,0,-8.7745,-8.7747,0,-8.7953,-8.7955,-8.7958,-8.7887,-8.7882,-8.7878,-8.7873,-8.8081,-8.809,-8.81,0,0,0,0,0,0,0,0,0,0,0,0,0,-8.7283,-8.7292,-8.7745,-8.7748,-8.775,-8.7953,-8.7956,-8.7958,-8.7888,-8.7882,-8.7877,-8.7871,-8.8078,-8.8089,-8.8101,0,0,0,0,0,0,0,0,0,0,0,0,0,-8.7486,-8.7294,-8.7745,-8.7739,-8.7741,-8.7952,-8.7956,-8.7959,-8.7889,-8.7882,-8.7875,-8.7869,-8.8074,-8.8088,-8.8102,-8.8329,0,0,-8.8147,-8.8154,0,0,0,0,0,0,0,0,-8.7475,-8.7503,-8.7738,-8.774,-8.7742,-8.7887,-8.7868,-8.8083,-8.789,-8.7833,-8.7873,-8.7865,-8.8022,-8.804,-8.8094,-8.8339,-8.8348,-8.8148,-8.8157,-8.8164,-8.8168,0,0,0,0,0,0,0,-8.7461,-8.7494,-8.7827,-8.7741,-8.7744,-8.7725,-8.7747,-8.7909,-8.7962,-8.7837,-8.7832,-8.7858,-8.8021,-8.808,-8.8098,-8.8351,-8.8148,-8.8161,-8.817,-8.8176,-8.8794,-8.8802,0,0,0,0,0,0,-8.7446,-8.7483,-8.782,-8.7833,-8.7589,-8.7739,-8.7763,-8.7847,-8.7961,-8.7971,-8.7864,-8.7854,-8.8058,-8.8081,-8.8105,-8.838,-8.8164,-8.8177,-8.8186,-8.8787,-8.8796,-8.8804,0,0,0,0,0,0,-8.7436,-8.7477,-8.7812,-8.7657,-8.7698,-8.7755,-8.785,-8.7855,-8.7914,-8.7981,-8.799,-8.7914,-8.8054,-8.8085,-8.8275,-8.8386,-8.8184,-8.8197,-8.8778,-8.879,-8.88,-8.893,0,0,0,0,0,0,-8.7423,-8.7474,-8.7561,-8.766,-8.7707,-8.798,-8.7857,-8.7864,-8.794,-8.7929,-8.803,-8.8041,-8.8051,-8.8254,-8.829,-8.8403,-8.8209,-8.8768,-8.8783,-8.8797,-8.8916,-8.8945,-8.8969,0,0,0,0,0,-8.7407,-8.7588,-8.7566,-8.7607,-8.7818,-8.7987,-8.8013,-8.8023,-8.7949,-8.8037,-8.8081,-8.8037,-8.8368,-8.8274,-8.8314,-8.8433,-8.8761,-8.8779,-8.8795,-8.8904,-8.8939,-8.8968,0,0,0,0,0,0,-8.7499,-8.7601,-8.7578,-8.7796,-8.7884,-8.7974,-8.8086,-8.8059,-8.8168,-8.8153,-8.8159,-8.8182,-8.8379,-8.8424,-8.8317,-8.8659,-8.8553,-8.8579,-8.8622,-8.8656,-8.8682,-8.8667,-8.8221,0,0,0,0,0,-8.7545,-8.7675,-8.7756,-8.7941,-8.7986,-8.8029,-8.8103,-8.8103,-8.8193,-8.8229,-8.8286,-8.8374,-8.8498,-8.8579,-8.8696,-8.8922,-8.8944,-8.9024,-8.905,-8.9071,-8.9094,-8.9218,-8.9255,-8.8861,-8.8861,-8.886,0,0,-8.7641,-8.7712,-8.7794,-8.7962,-8.8029,-8.8163,-8.806,-8.8206,-8.8305,-8.825,-8.8435,-8.848,-8.8578,-8.8788,-8.8883,-8.8832,-8.9208,-8.9093,-8.911,-8.9121,-8.924,-8.9277,-8.931,-8.8873,-8.887,-8.8869,0,0,-8.7884,-8.7951,-8.8114,-8.8185,-8.829,-8.8317,-8.8356,-8.8452,-8.8481,-8.8667,-8.8629,-8.8746,-8.8959,-8.9031,-8.9095,-8.9369,-8.9333,-8.9406,-8.9545,-8.9666,-8.9697,-8.9724,-8.9823,-8.9859,-8.9428,-8.9429,-8.9429,0,-8.799,-8.8191,-8.82,-8.835,-8.8425,-8.8384,-8.8549,-8.8616,-8.8754,-8.8806,-8.8747,-8.9015,-8.9078,-8.9305,-8.9372,-8.9425,-8.947,-8.9395,-8.9692,-8.972,-8.9746,-8.984,-8.9877,-8.9437,-8.9436,-8.9435,-8.9435,0,-8.8317,-8.8457,-8.8575,-8.8712,-8.88,-8.8957,-8.8988,-8.9076,-8.9069,-8.9102,-8.9292,-8.9367,-8.95,-8.9553,-8.9546,-8.978,-8.9745,-8.969,-8.9584,-8.9792,-8.988,-8.9916,-8.9449,-8.9446,-8.9444,-8.9442,0,0,-8.8623,-8.8764,-8.8808,-8.887,-8.8984,-8.9092,-8.9247,-8.9379,-8.9455,-8.9551,-8.9681,-8.9863,-8.9813,-8.9886,-8.9887,-8.9993,-9.0207,-8.9924,-8.9927,-8.9976,-9.0471,-9.0513,-9.0555,-9.0184,-9.0191,-9.0196,-9.0463,0,-8.8877,-8.9151,-8.9164,-8.9413,-8.9543,-8.9507,-8.9642,-8.9725,-8.9761,-8.9876,-8.9914,-9.0044,-8.9967,-9.0011,-9.0115,-9.0159,-9.0307,-9.014,-9.0304,-9.031,-9.0283,-9.0601,-9.0646,-9.0894,-9.0497,-9.0503,-9.0508,0,-8.921,-8.932,-8.9582,-8.968,-8.9735,-8.9856,-8.9979,-9.0089,-9.0184,-9.0202,-9.0286,-9.0272,-9.0429,-9.0318,-9.0535,-9.0421,-9.0489,-9.0521,-9.0531,-9.0548,-9.0422,-9.0627,-9.0973,-9.1011,-9.0562,-9.0558,-9.0554,0,-8.9409,-8.9622,-8.9808,-8.9862,-8.9979,-9.0066,-9.0118,-9.0206,-9.0286,-9.0392,-9.0444,-9.0567,-9.0635,-9.073,-9.0749,-9.0666,-9.0967,-9.0857,-9.0987,-9.0987,-9.1053,-9.1048,-9.1416,-9.1095,-9.1094,-9.1093,-9.1092,0,-8.9692,-8.9854,-8.9899,-9.0013,-9.0194,-9.0207,-9.0385,-9.0432,-9.0511,-9.0633,-9.0607,-9.0722,-9.074,-9.0859,-9.0875,-9.1053,-9.1083,-9.1102,-9.1105,-9.1106,-9.1103,-9.1151,-9.1134,-9.1103,-9.1101,-9.1099,-9.1097,0,-8.9946,-8.9982,-9.0182,-9.0278,-9.0306,-9.0435,-9.0517,-9.0626,-9.0659,-9.0814,-9.0851,-9.0902,-9.1041,-9.107,-9.1233,-9.1244,-9.1456,-9.1441,-9.1426,-9.1425,-9.1554,-9.1542,-9.1965,-9.2022,-9.1662,-9.1666,-9.1668,0,-9.0124,-9.0249,-9.036,-9.0441,-9.0499,-9.0629,-9.0711,-9.0728,-9.0814,-9.0932,-9.1027,-9.1163,-9.1273,-9.1496,-9.1547,-9.1672,-9.1661,-9.1801,-9.1679,-9.1677,-9.1665,-9.1658,-9.1671,-9.1824,-9.1828,-9.1831,-9.1833,0,-9.0439,-9.0451,-9.0571,-9.0699,-9.0798,-9.0898,-9.0993,-9.1061,-9.1091,-9.1188,-9.1332,-9.1417,-9.1586,-9.1721,-9.1847,-9.1899,-9.1873,-9.1871,-9.1908,-9.1911,-9.1898,-9.1908,-9.149,-9.1862,-9.1859,-9.1857,-9.1855,-9.1854,-9.0661,-9.0771,-9.0867,-9.1002,-9.1077,-9.1167,-9.1275,-9.1323,-9.1443,-9.1584,-9.1586,-9.1742,-9.1834,-9.2,-9.2061,-9.2182,-9.2138,-9.2191,-9.2205,-9.2219,-9.2232,-9.1878,-9.2205,-9.2204,-9.2203,-9.2203,-9.2202,0,-9.0976,-9.1036,-9.116,-9.1296,-9.1403,-9.137,-9.1474,-9.1565,-9.1704,-9.1793,-9.1903,-9.2068,-9.22,-9.2262,-9.2392,-9.2478,-9.2469,-9.2512,-9.2506,-9.2519,-9.2262,-9.2218,-9.2517,-9.2517,-9.2517,-9.2517,-9.2517,-9.2517,-9.1152,-9.1337,-9.1361,-9.1583,-9.1642,-9.1797,-9.186,-9.1943,-9.2014,-9.22,-9.2311,-9.2352,-9.2431,-9.2567,-9.2686,-9.2701,-9.2751,-9.28,-9.2809,-9.2568,-9.2537,-9.2506,-9.2465,-9.281,-9.2811,-9.3056,-9.3058,-9.306]}]]